Change the Weather History Date:

Thursday, May 16, 2013

  Actual Average Record
Temperature  
Mean Temperature 64 °F 60 °F  
Max Temperature 72 °F 75 °F 97 °F (1973)
Min Temperature 56 °F 44 °F 30 °F (1974)
Degree Days  
Heating Degree Days 1 6  
Month to date heating degree days 44 137  
Since 1 July heating degree days 5565 5878  
Cooling Degree Days 0 1  
Month to date cooling degree days 46 11  
Year to date cooling degree days 46 12  
Growing Degree Days 12 (Base 50)    
Moisture  
Dew Point 37 °F    
Average Humidity 39    
Maximum Humidity 53    
Minimum Humidity 24    
Precipitation  
Precipitation 0.00 in 0.05 in 0.79 in (1991)
Month to date precipitation T 0.62  
Year to date precipitation 1.41 4.41  
Sea Level Pressure  
Sea Level Pressure 29.85 in    
Wind  
Wind Speed 8 mph (West)    
Max Wind Speed 25 mph    
Max Gust Speed 31 mph    
Visibility 10 miles    
Events      
T = Trace of Precipitation, MM = Missing Value Source: NWS Daily Summary

Daily Weather History Graph

Daily Weather History Graph

Search for Another Location

Airport or City:

Trip Planner

Search our weather history database for the weather conditions in past years. The results will help you decide how hot, cold, wet, or windy it might be!

Date:

Astronomy

May. 16, 2013 Rise Set
Actual Time 6:20 AM MDT 9:09 PM MDT
Civil Twilight 5:46 AM MDT 9:42 PM MDT
Nautical Twilight 5:04 AM MDT 10:25 PM MDT
Astronomical Twilight 4:15 AM MDT 11:15 PM MDT
Moon 12:02 PM MDT (5/16) 1:28 AM MDT (5/16)
Length of Visible Light 15h 55m
Length of Day
14h 48m
Waxing Crescent, 36% of the Moon is Illuminated
May 16
Waxing Crescent
May 17
First Quarter
May 24
Full
May 31
Last Quarter
Jun 8
New

Hourly Weather History & Observations

Time (MDT) Temp. Dew Point Humidity Pressure Visibility Wind Dir Wind Speed Gust Speed Precip Events Conditions
12:53 AM 61.0 °F 35.1 °F 38% 29.86 in 10.0 mi NW 13.8 mph - N/A   Scattered Clouds
1:53 AM 60.1 °F 36.0 °F 41% 29.85 in 10.0 mi NNW 15.0 mph 23.0 mph N/A   Overcast
2:53 AM 59.0 °F 37.0 °F 44% 29.86 in 10.0 mi NW 17.3 mph 25.3 mph N/A   Overcast
3:53 AM 59.0 °F 37.0 °F 44% 29.86 in 10.0 mi NW 20.7 mph 29.9 mph N/A   Overcast
4:53 AM 57.9 °F 37.0 °F 46% 29.87 in 10.0 mi NW 16.1 mph 21.9 mph N/A   Overcast
5:53 AM 57.9 °F 37.0 °F 46% 29.87 in 10.0 mi WNW 9.2 mph - N/A   Mostly Cloudy
6:53 AM 55.9 °F 37.9 °F 51% 29.89 in 10.0 mi West 6.9 mph - N/A   Mostly Cloudy
7:53 AM 57.0 °F 39.0 °F 51% 29.91 in 10.0 mi West 8.1 mph - N/A   Partly Cloudy
9:53 AM 63.0 °F 37.9 °F 40% 29.91 in 10.0 mi WNW 10.4 mph - N/A   Partly Cloudy
10:53 AM 66.0 °F 36.0 °F 33% 29.90 in 10.0 mi NW 13.8 mph - N/A   Clear
11:53 AM 66.0 °F 35.1 °F 32% 29.89 in 10.0 mi WNW 4.6 mph - N/A   Clear
12:53 PM 68.0 °F 35.1 °F 30% 29.88 in 10.0 mi Variable 4.6 mph - N/A   Clear
1:53 PM 68.0 °F 35.1 °F 30% 29.86 in 10.0 mi SSE 5.8 mph - N/A   Clear
2:53 PM 70.0 °F 34.0 °F 27% 29.84 in 10.0 mi Variable 3.5 mph - N/A   Partly Cloudy
4:53 PM 70.0 °F 33.1 °F 26% 29.80 in 10.0 mi Calm Calm - N/A   Clear
5:53 PM 70.0 °F 35.1 °F 28% 29.79 in 10.0 mi Variable 4.6 mph - N/A   Mostly Cloudy
6:53 PM 69.1 °F 35.1 °F 29% 29.79 in 10.0 mi SSE 5.8 mph - N/A   Overcast
7:53 PM 68.0 °F 37.0 °F 32% 29.78 in 8.0 mi South 4.6 mph - N/A   Overcast
8:53 PM 64.9 °F 37.9 °F 37% 29.79 in 10.0 mi South 4.6 mph - N/A   Clear
9:53 PM 63.0 °F 37.9 °F 40% 29.80 in 10.0 mi SSW 4.6 mph - N/A   Partly Cloudy
10:53 PM 62.1 °F 39.9 °F 44% 29.81 in 10.0 mi SSW 8.1 mph - N/A   Overcast
11:53 PM 59.0 °F 43.0 °F 55% 29.82 in 10.0 mi WSW 6.9 mph - N/A   Mostly Cloudy